Date,TemperatureHighF,TemperatureAvgF,TemperatureLowF,DewpointHighF,DewpointAvgF,DewpointLowF,HumidityHigh,HumidityAvg,HumidityLow,PressureMaxIn,PressureMinIn,WindSpeedMaxMPH,WindSpeedAvgMPH,GustSpeedMaxMPH,PrecipitationSumIn
2013-3-1,35.6,29.4,22.3,9.7,1.0,-4.7,37,30,22,17.72,17.72,9,4,16,0.00
2013-3-2,31.3,24.5,17.8,0.0,-4.7,-8.6,33,28,23,17.72,17.72,8,3,15,0.00
2013-3-3,33.1,24.6,19.4,-0.8,-4.5,-9.5,36,28,23,17.72,17.72,8,3,15,0.00
2013-3-12,43.7,39.5,35.4,16.3,12.2,9.2,41,33,25,29.26,29.18,8,2,12,0.00
2013-3-13,41.4,33.3,21.9,16.5,5.7,-8.5,43,32,21,29.38,29.21,8,2,19,0.00
2013-3-14,36.7,26.8,18.3,1.0,-5.2,-11.0,33,24,22,29.47,29.35,9,3,15,0.00
2013-3-15,46.8,34.2,24.6,9.0,0.7,-7.2,31,24,19,29.41,29.12,8,3,15,0.00
2013-3-16,31.5,26.5,22.3,0.0,-4.9,-8.4,33,25,23,29.35,29.26,8,3,12,0.00
2013-3-17,34.7,25.7,20.3,-0.2,-6.4,-12.7,32,24,21,29.74,29.35,9,2,14,0.00
2013-3-18,34.9,28.3,17.6,33.8,2.8,-14.0,91,38,22,29.71,29.03,13,6,31,0.00
2013-3-19,38.7,34.0,26.1,37.4,19.9,-2.2,96,63,25,29.21,28.97,9,2,17,0.00
2013-3-20,39.6,29.7,22.8,6.4,-0.1,-8.2,42,28,21,29.21,29.18,8,2,12,0.00
2013-3-21,37.6,28.4,19.4,10.2,0.2,-7.0,39,30,21,29.21,29.06,8,2,15,0.00
2013-3-22,43.0,33.0,27.0,7.7,3.0,-2.9,41,29,20,29.32,29.12,7,3,15,0.00
2013-3-23,44.8,35.6,29.5,10.5,4.3,-1.4,43,27,20,29.41,29.29,7,2,13,0.00
2013-3-24,45.0,35.3,26.8,8.8,3.4,-0.8,40,26,20,29.41,29.15,8,2,11,0.00
2013-3-25,46.6,39.4,32.5,7.2,3.9,0.4,30,23,19,29.15,29.03,10,4,15,0.00
2013-3-26,54.9,43.1,35.4,12.1,5.5,0.2,24,21,18,29.32,29.15,9,3,12,0.00
2013-3-27,51.6,40.2,34.9,16.6,8.2,2.2,45,28,19,29.44,29.32,7,2,10,0.00
2013-3-28,50.5,41.7,34.3,14.7,10.0,4.4,43,29,19,29.59,29.44,6,2,11,0.00
2013-3-29,62.2,46.6,37.2,15.5,9.3,2.1,30,22,16,29.59,29.50,7,2,11,0.00
2013-3-30,60.4,45.2,31.6,15.2,7.2,-1.1,31,21,17,29.59,29.38,9,2,14,0.00
2013-3-31,39.6,39.2,38.8,2.8,2.5,2.1,21,21,21,29.38,29.35,4,0,5,0.00